| time (UTC) | temp F | wind direction | speed MPH | gust MPH | rain 1hr in | rain 24hr in | rain mn in | humidity % | barometer mb |
| 20260507223028 | 54 | 311 | 4.0 | 9.0 | 0.00 | 0.12 | 0.00 | 41 | 1004.9 |
| 20260507221524 | 55 | 274 | 3.0 | 8.0 | 0.00 | 0.12 | 0.00 | 40 | 1004.8 |
| 20260507220024 | 55 | 293 | 2.0 | 5.0 | 0.00 | 0.12 | 0.00 | 41 | 1004.6 |
| 20260507214522 | 56 | 277 | 2.0 | 8.0 | 0.00 | 0.14 | 0.00 | 40 | 1004.5 |
| 20260507213026 | 56 | 320 | 1.0 | 11.0 | 0.00 | 0.14 | 0.00 | 39 | 1004.4 |
| 20260507211516 | 56 | 276 | 3.0 | 8.0 | 0.00 | 0.14 | 0.00 | 40 | 1004.4 |
| 20260507210113 | 57 | 292 | 5.0 | 8.0 | 0.00 | 0.14 | 0.00 | 40 | 1004.2 |
| 20260507204511 | 57 | 262 | 1.0 | 8.0 | 0.00 | 0.21 | 0.00 | 39 | 1004.0 |
| 20260507203009 | 56 | 9 | 2.0 | 9.0 | 0.00 | 0.21 | 0.00 | 40 | 1003.9 |
| 20260507201508 | 56 | 290 | 2.0 | 6.0 | 0.00 | 0.21 | 0.00 | 39 | 1003.8 |
| 20260507200012 | 57 | 271 | 3.0 | 11.0 | 0.00 | 0.21 | 0.00 | 39 | 1003.8 |
| 20260507194504 | 57 | 281 | 5.0 | 11.0 | 0.00 | 0.27 | 0.00 | 41 | 1003.9 |
| 20260507193001 | 57 | 278 | 3.0 | 10.0 | 0.00 | 0.27 | 0.00 | 40 | 1004.1 |
| 20260507191600 | 57 | 301 | 5.0 | 10.0 | 0.00 | 0.27 | 0.00 | 39 | 1004.2 |
| 20260507184552 | 57 | 272 | 2.0 | 11.0 | 0.00 | 0.37 | 0.00 | 50 | 1004.1 |
| 20260507183057 | 56 | 243 | 4.0 | 10.0 | 0.00 | 0.37 | 0.00 | 45 | 1004.2 |
| 20260507181547 | 57 | 320 | 3.0 | 10.0 | 0.00 | 0.37 | 0.00 | 44 | 1004.3 |
| 20260507180050 | 57 | 302 | 2.0 | 6.0 | 0.00 | 0.37 | 0.00 | 49 | 1004.4 |
| 20260507174541 | 54 | 283 | 3.0 | 7.0 | 0.00 | 0.41 | 0.00 | 50 | 1004.7 |
| 20260507173037 | 54 | 238 | 3.0 | 9.0 | 0.00 | 0.41 | 0.00 | 59 | 1004.7 |
| 20260507171535 | 54 | 297 | 3.0 | 9.0 | 0.00 | 0.41 | 0.00 | 63 | 1004.5 |
| 20260507170035 | 56 | 286 | 3.0 | 7.0 | 0.00 | 0.41 | 0.00 | 60 | 1004.5 |
| 20260507164530 | 56 | 279 | 3.0 | 7.0 | 0.00 | 0.43 | 0.00 | 61 | 1004.6 |
| 20260507163027 | 57 | 263 | 1.0 | 4.0 | 0.00 | 0.43 | 0.00 | 64 | 1004.8 |
| 20260507161524 | 56 | 270 | 1.0 | 6.0 | 0.00 | 0.43 | 0.00 | 61 | 1005.0 |
| 20260507160026 | 57 | 224 | 2.0 | 6.0 | 0.00 | 0.43 | 0.00 | 60 | 1005.0 |
| 20260507154522 | 55 | 268 | 1.0 | 4.0 | 0.00 | 0.43 | 0.00 | 61 | 1005.2 |
| 20260507153019 | 55 | 297 | 1.0 | 6.0 | 0.00 | 0.43 | 0.00 | 63 | 1005.4 |
| 20260507151517 | 55 | 238 | 1.0 | 9.0 | 0.00 | 0.43 | 0.00 | 59 | 1005.4 |
| 20260507150114 | 56 | 288 | 3.0 | 8.0 | 0.00 | 0.43 | 0.00 | 58 | 1005.4 |
| 20260507144511 | 55 | 321 | 3.0 | 6.0 | 0.00 | 0.43 | 0.00 | 60 | 1005.4 |
| 20260507143007 | 56 | 297 | 1.0 | 6.0 | 0.00 | 0.43 | 0.00 | 62 | 1005.5 |
| 20260507141502 | 56 | 285 | 1.0 | 6.0 | 0.00 | 0.43 | 0.00 | 67 | 1005.6 |
| 20260507140122 | 54 | 198 | 2.0 | 8.0 | 0.00 | 0.43 | 0.00 | 69 | 1005.9 |
| 20260507134556 | 54 | 305 | 2.0 | 7.0 | 0.00 | 0.43 | 0.00 | 68 | 1005.9 |
| 20260507133050 | 53 | 262 | 2.0 | 6.0 | 0.00 | 0.43 | 0.00 | 70 | 1006.1 |
| 20260507131552 | 52 | 340 | 2.0 | 6.0 | 0.00 | 0.43 | 0.00 | 71 | 1006.0 |
| 20260507130050 | 51 | 291 | 2.0 | 6.0 | 0.00 | 0.43 | 0.00 | 71 | 1006.1 |
| 20260507124543 | 50 | 296 | 1.0 | 6.0 | 0.00 | 0.43 | 0.00 | 73 | 1006.1 |
| 20260507123038 | 50 | 240 | 2.0 | 6.0 | 0.00 | 0.43 | 0.00 | 74 | 1006.1 |
| 20260507121538 | 49 | 264 | 1.0 | 5.0 | 0.00 | 0.43 | 0.00 | 78 | 1006.2 |
| 20260507120025 | 48 | 323 | 3.0 | 5.0 | 0.00 | 0.43 | 0.00 | 78 | 1006.3 |
| 20260507114519 | 47 | 320 | 2.0 | 5.0 | 0.00 | 0.43 | 0.00 | 79 | 1006.2 |
| 20260507113028 | 47 | 302 | 1.0 | 6.0 | 0.00 | 0.43 | 0.00 | 81 | 1006.4 |
| 20260507111518 | 46 | 304 | 0.0 | 4.0 | 0.00 | 0.43 | 0.00 | 81 | 1006.3 |
| 20260507110014 | 46 | 319 | 0.0 | 5.0 | 0.00 | 0.43 | 0.00 | 81 | 1006.4 |
| 20260507104505 | 0 | 0.0 | 0.0 | 0.00 | 0.43 | 0.00 | 1006.5 | ||
| 20260507103100 | 0 | 0.0 | 0.0 | 0.00 | 0.43 | 0.00 | 1006.3 | ||
| 20260507101554 | 0 | 0.0 | 0.0 | 0.00 | 0.43 | 0.00 | 1006.2 | ||
| 20260507100049 | 0 | 0.0 | 0.0 | 0.00 | 0.43 | 0.00 | 1006.1 | ||
| 20260507094543 | 0 | 0.0 | 0.0 | 0.00 | 0.43 | 0.00 | 1005.9 | ||
| 20260507093040 | 0 | 0.0 | 0.0 | 0.00 | 0.43 | 0.00 | 1005.8 | ||
| 20260507091532 | 0 | 0.0 | 0.0 | 0.00 | 0.43 | 0.00 | 1005.6 | ||
| 20260507090129 | 0 | 0.0 | 0.0 | 0.00 | 0.43 | 0.00 | 1005.6 | ||
| 20260507084528 | 0 | 0.0 | 0.0 | 0.00 | 0.43 | 0.00 | 1005.9 | ||
| 20260507083127 | 0 | 0.0 | 0.0 | 0.00 | 0.43 | 0.00 | 1006.1 | ||
| 20260507081518 | 0 | 0.0 | 0.0 | 0.00 | 0.43 | 0.00 | 1005.5 | ||
| 20260507080014 | 0 | 0.0 | 0.0 | 0.00 | 0.43 | 0.00 | 1005.2 | ||
| 20260507074522 | 0 | 0.0 | 0.0 | 0.00 | 0.43 | 0.00 | 1005.9 | ||
| 20260507073002 | 0 | 0.0 | 0.0 | 0.00 | 0.43 | 0.00 | 1005.7 | ||
| 20260507071609 | 0 | 0.0 | 0.0 | 0.00 | 0.43 | 0.00 | 1005.9 | ||
| 20260507070052 | 0 | 0.0 | 0.0 | 0.00 | 0.43 | 0.00 | 1005.5 | ||
| 20260507064552 | 0 | 0.0 | 0.0 | 0.00 | 0.43 | 0.00 | 1005.3 | ||
| 20260507063042 | 0 | 0.0 | 0.0 | 0.00 | 0.43 | 0.00 | 1004.9 | ||
| 20260507061538 | 0 | 0.0 | 0.0 | 0.00 | 0.43 | 0.00 | 1004.7 | ||
| 20260507060031 | 0 | 0.0 | 0.0 | 0.00 | 0.43 | 0.00 | 1004.8 | ||
| 20260507054526 | 0 | 0.0 | 0.0 | 0.00 | 0.43 | 0.00 | 1004.7 | ||
| 20260507053020 | 0 | 0.0 | 0.0 | 0.00 | 0.43 | 0.00 | 1004.6 | ||
| 20260507051516 | 0 | 0.0 | 0.0 | 0.00 | 0.43 | 0.00 | 1004.3 | ||
| 20260507050011 | 0 | 0.0 | 0.0 | 0.00 | 0.43 | 0.00 | 1004.6 | ||
| 20260507044505 | 0 | 0.0 | 0.0 | 0.00 | 0.43 | 0.00 | 1004.8 | ||
| 20260507043001 | 0 | 0.0 | 0.0 | 0.00 | 0.43 | 0.00 | 1004.9 | ||
| 20260507041602 | 0 | 0.0 | 0.0 | 0.00 | 0.43 | 0.00 | 1004.8 | ||
| 20260507040059 | 0 | 0.0 | 0.0 | 0.00 | 0.43 | 0.00 | 1005.1 | ||
| 20260507034556 | 0 | 0.0 | 0.0 | 0.00 | 0.43 | 0.43 | 1004.7 | ||
| 20260507033048 | 0 | 0.0 | 0.0 | 0.00 | 0.43 | 0.43 | 1004.8 | ||
| 20260507031546 | 0 | 0.0 | 0.0 | 0.00 | 0.43 | 0.43 | 1004.4 | ||
| 20260507030048 | 0 | 0.0 | 0.0 | 0.00 | 0.43 | 0.43 | 1004.3 | ||
| 20260507024544 | 0 | 0.0 | 0.0 | 0.00 | 0.43 | 0.43 | 1003.9 | ||
| 20260507023043 | 0 | 0.0 | 0.0 | 0.00 | 0.43 | 0.43 | 1004.3 | ||
| 20260507021545 | 0 | 0.0 | 0.0 | 0.00 | 0.43 | 0.43 | 1003.8 | ||
| 20260507020038 | 0 | 0.0 | 0.0 | 0.00 | 0.43 | 0.43 | 1004.0 | ||
| 20260507014534 | 0 | 0.0 | 0.0 | 0.00 | 0.43 | 0.43 | 1004.0 | ||
| 20260507013035 | 0 | 0.0 | 0.0 | 0.00 | 0.43 | 0.43 | 1003.9 | ||
| 20260507011535 | 0 | 0.0 | 0.0 | 0.00 | 0.43 | 0.43 | 1004.2 | ||
| 20260507010018 | 0 | 0.0 | 0.0 | 0.00 | 0.43 | 0.43 | 1004.0 | ||
| 20260507004517 | 0 | 0.0 | 0.0 | 0.01 | 0.43 | 0.43 | 1003.9 | ||
| 20260507003009 | 0 | 150 | 3.0 | 9.0 | 0.01 | 0.43 | 0.43 | 1003.3 | |
| 20260507001504 | 56 | 157 | 5.0 | 9.0 | 0.03 | 0.43 | 0.43 | 98 | 1003.3 |
| 20260507000003 | 56 | 158 | 3.0 | 9.0 | 0.03 | 0.44 | 0.43 | 98 | 1003.3 |
| 20260506234504 | 56 | 150 | 4.0 | 9.0 | 0.05 | 0.43 | 0.42 | 98 | 1003.3 |
| 20260506233059 | 56 | 171 | 3.0 | 9.0 | 0.08 | 0.43 | 0.42 | 98 | 1003.2 |
| 20260506231557 | 56 | 188 | 4.0 | 8.0 | 0.08 | 0.41 | 0.40 | 98 | 1003.3 |
| 20260506230054 | 56 | 145 | 3.0 | 6.0 | 0.09 | 0.41 | 0.40 | 98 | 1003.5 |
| 20260506224550 | 57 | 131 | 2.0 | 6.0 | 0.07 | 0.40 | 0.38 | 97 | 1003.5 |